This is the latest recevied weather packets stored in our database for station/object SV7RNH. If no packets are shown the sender has not sent any weather packets the latest 1 day(s).
| Time | Temp. | Humidity | Pressure | Rain* | Wind** | Luminosity | Snow |
|---|---|---|---|---|---|---|---|
| 1836274677 | 20° C | 46% | 1011.7 hPa | 0 mm | 0 m/s | - | - |
| 1836274528 | 20° C | 47% | 1011.7 hPa | 0 mm | 0.45 m/s, 334° | - | - |
| 1836274377 | 20° C | 46% | 1011.7 hPa | 0 mm | 0 m/s | - | - |
| 1836274228 | 20° C | 47% | 1011.8 hPa | 0 mm | 0.45 m/s, 333° | - | - |
| 1836274078 | 20° C | 46% | 1011.7 hPa | 0 mm | 0 m/s | - | - |
| 1778054404 | 24.44° C | 36% | 1017.3 hPa | 0 mm | 0.45 m/s, 191° | - | - |
| 1778054103 | 24.44° C | 35% | 1017.2 hPa | 0 mm | 0.89 m/s, 187° | - | - |
| 1778053803 | 24.44° C | 36% | 1017.3 hPa | 0 mm | 0.89 m/s, 304° | - | - |
| 1778053503 | 24.44° C | 35% | 1017.2 hPa | 0 mm | 0.45 m/s, 336° | - | - |
| 1778053204 | 23.89° C | 36% | 1017.2 hPa | 0 mm | 0.45 m/s, 327° | - | - |
| 1778052904 | 23.33° C | 37% | 1017.3 hPa | 0 mm | 0.45 m/s, 243° | - | - |
| 1778052603 | 23.33° C | 38% | 1017.1 hPa | 0 mm | 0.45 m/s, 229° | - | - |
| 1778052304 | 23.33° C | 38% | 1017.2 hPa | 0 mm | 0 m/s | - | - |
| 1778052004 | 23.33° C | 39% | 1017.2 hPa | 0 mm | 0.89 m/s, 1° | - | - |
| 1778051715 | 23.33° C | 39% | 1017.2 hPa | 0 mm | 0 m/s | - | - |
| 1778051403 | 23.33° C | 39% | 1017.2 hPa | 0 mm | 0.89 m/s, 344° | - | - |
| 1778051104 | 23.33° C | 40% | 1017.2 hPa | 0 mm | 0.89 m/s, 311° | - | - |
| 1778050803 | 22.78° C | 41% | 1017.2 hPa | 0 mm | 0 m/s | - | - |
| 1778050503 | 22.78° C | 42% | 1017.3 hPa | 0 mm | 0 m/s | - | - |
| 1778050204 | 22.78° C | 41% | 1017.4 hPa | 0 mm | 0.45 m/s, 339° | - | - |
| 1778049904 | 22.78° C | 42% | 1017.4 hPa | 0 mm | 0.45 m/s, 253° | - | - |
| 1778049603 | 22.78° C | 42% | 1017.4 hPa | 0 mm | 0.45 m/s, 225° | - | - |
| 1778049303 | 22.22° C | 42% | 1017.4 hPa | 0 mm | 0.45 m/s, 225° | - | - |
| 1778049004 | 22.22° C | 42% | 1017.4 hPa | 0 mm | 0.45 m/s, 225° | - | - |
| 1778048705 | 21.67° C | 42% | 1017.5 hPa | 0 mm | 0.45 m/s, 225° | - | - |
* Rain latest hour (hover to see other rain measurements)
** Current wind speed in m/s (hover to see current wind gust speed)